This demonstration page uses our WeatherBlox Daily Observations layout. Learn more.

Left ArrowRight Arrow

Hourly Observations for February 15, 2022

Temp ( °F °C ) Dew Point ( °F °C ) Humidity (%) Winds ( mph kmh ) Pressure ( in mb ) Visibility ( mi km ) Precip ( " mm )
12:53 am 00:53 Clear 49 9.4 26 -3.3 41 41 N 7 11 29.98 1015 10 16 0.00 0.00
1:53 am 01:53 Clear 49 9.4 24 -4.4 38 38 NNW 9 15 29.98 1015 10 16 0.00 0.00
2:53 am 02:53 Clear 49 9.4 24 -4.4 38 38 N 8 13 30.00 1016 10 16 0.00 0.00
3:53 am 03:53 Clear 47 8.3 24 -4.4 41 41 N 8 13 30.00 1016 10 16 0.00 0.00
4:53 am 04:53 Clear 47 8.3 24 -4.4 41 41 N 7 11 30.01 1016 10 16 0.00 0.00
5:53 am 05:53 Clear 42 5.6 25 -3.9 51 51 N 7 11 30.03 1017 10 16 0.00 0.00
6:53 am 06:53 Clear 46 7.8 24 -4.4 42 42 N 7 11 30.03 1017 10 16 0.00 0.00
7:53 am 07:53 Sunny 49 9.4 24 -4.4 38 38 N 7 11 30.05 1018 10 16 0.00 0.00
8:53 am 08:53 Sunny 52 11.1 24 -4.4 34 34 N 15 24 30.05 1018 10 16 0.00 0.00
9:53 am 09:53 Sunny 54 12.2 24 -4.4 31 31 N 16 26 30.05 1018 10 16 0.00 0.00
10:53 am 10:53 Sunny 56 13.3 24 -4.4 29 29 N 14 22 30.04 1017 10 16 0.00 0.00
11:53 am 11:53 Sunny 59 15 25 -3.9 27 27 N 12 19 30.03 1017 10 16 0.00 0.00
12:53 pm 12:53 Sunny 62 16.7 25 -3.9 24 24 N 10 17 29.99 1016 10 16 0.00 0.00
1:53 pm 13:53 Sunny 62 16.7 26 -3.3 25 25 ENE 9 15 29.96 1015 10 16 0.00 0.00
2:53 pm 14:53 Sunny 63 17.2 26 -3.3 25 25 NE 17 28 29.94 1014 10 16 0.00 0.00
3:53 pm 15:53 Sunny 63 17.2 25 -3.9 24 24 NNE 18 30 29.96 1014 10 16 0.00 0.00
4:53 pm 16:53 Sunny 62 16.7 26 -3.3 25 25 NE 14 22 29.96 1015 10 16 0.00 0.00
5:53 pm 17:53 Clear 60 15.6 25 -3.9 26 26 N 8 13 29.99 1016 10 16 0.00 0.00
6:53 pm 18:53 Clear 59 15 26 -3.3 28 28 N 10 17 30.00 1016 10 16 0.00 0.00
7:53 pm 19:53 Clear 57 13.9 26 -3.3 30 30 N 8 13 30.03 1017 10 16 0.00 0.00
8:53 pm 20:53 Clear 56 13.3 27 -2.8 33 33 NNW 10 17 30.05 1018 10 16 0.00 0.00
9:53 pm 21:53 Clear 54 12.2 28 -2.2 37 37 NNW 9 15 30.06 1018 10 16 0.00 0.00
10:53 pm 22:53 Clear 54 12.2 28 -2.2 37 37 N 13 20 30.07 1018 10 16 0.00 0.00
11:53 pm 23:53 Clear 53 11.7 28 -2.2 38 38 N 13 20 30.06 1018 10 16 0.00 0.00

Powered by AerisWeather